Content
SEND FEEDBACK

Daily
Averages
Monthly
Summary
United States of America

GREENFIELD, MASSACHUSETTS


Home > North America > United States > Massachusetts
Elevation: 58 meters     Latitude: 42 37N     Longitude: 072 33W

WEATHER
 
SELECT A DAY
Number of Records: 212,414;   Date Range: 7/1/96 - 7/26/14
 
SHARE

PRINT THIS DATA

[ ← Previous Day ]
WEATHER ALMANAC - 6 APRIL, 2014
[ Next Day → ]
[ °F ]   °C
Weather ElementAverageHighLow
Temperature4.8 °C12.2 °C (3:52 pm)-2.2 °C (5:52 am)
Dewpoint-6.7 °C-3.3 °C (8:52 pm)-9.4 °C (3:52 pm)
Humidity48.5 %82 % (11:52 pm)22 % (3:52 pm)
Barometer1019.3 hPa1022.7 hPa (10:52 pm)1015.6 hPa (1:52 am)
Wind Speed9.3 km/h20.4 km/h (2:52 am)
Wind Gust31.5 km/h (1:52 am)
Weather ElementAverage
Visibility16.1 km
Wind DirectionS (183.6 °)

Weather ElementTotal
Precipitation---
Heating Degree Days13.3 (Base 18.3)
Averaged from 22 records on 6 April, 2014
WEATHER CONDITIONS BREAKOUT
WIND DIRECTION BREAKOUT
WEATHER BY HOUR - 6 APRIL, 2014
[ °F ]   °C
Local TimeTemperatureDewpointHumidityBarometerVisibilityWind DirectionWind SpeedGust SpeedPrecipitationEventsConditions
1:52 AM1.1 °C-6.1 °C59 %1015.6 hPa16.1 kmWest (280°)18.5 km/h31.5 km/hClear
2:52 AM1.1 °C-6.1 °C59 %1015.6 hPa16.1 kmWNW (290°)20.4 km/hClear
3:52 AM0.6 °C-6.1 °C61 %1015.9 hPa16.1 kmNW (310°)16.7 km/hClear
4:52 AM0.6 °C-6.7 °C59 %1016.6 hPa16.1 kmNW (320°)11.1 km/hClear
5:52 AM-2.2 °C-6.1 °C75 %1017.6 hPa16.1 kmCalmClear
6:52 AM-1.1 °C-6.7 °C66 %1019 hPa16.1 kmCalmClear
7:52 AM1.1 °C-7.2 °C54 %1019.6 hPa16.1 kmWest (280°)13 km/hClear
9:52 AM3.3 °C-7.8 °C45 %1020.3 hPa16.1 kmWest (270°)11.1 km/hClear
10:52 AM5 °C-8.3 °C38 %1020.3 hPa16.1 kmCalmClear
11:52 AM7.8 °C-8.9 °C30 %1020 hPa16.1 kmNorth (360°)18.5 km/h31.5 km/hClear
12:52 PM9.4 °C-8.3 °C28 %1019.6 hPa16.1 kmWest (260°)16.7 km/hClear
1:52 PM10.6 °C-8.9 °C25 %1019.6 hPa16.1 kmWNW (290°)14.8 km/hClear
2:52 PM11.7 °C-8.9 °C23 %1019.3 hPa16.1 kmWest (270°)13 km/h29.6 km/hClear
3:52 PM12.2 °C-9.4 °C22 %1019.6 hPa16.1 kmWest (280°)20.4 km/h27.8 km/hClear
4:52 PM12.2 °C-8.9 °C22 %1019.6 hPa16.1 kmWest (270°)13 km/hClear
5:52 PM12.2 °C-7.8 °C24 %1019.6 hPa16.1 kmWNW (300°)9.3 km/hClear
6:52 PM11.1 °C-6.7 °C28 %1020 hPa16.1 kmWest (260°)9.3 km/hClear
7:52 PM5 °C-3.9 °C53 %1020.7 hPa16.1 kmCalmClear
8:52 PM2.8 °C-3.3 °C65 %1021.7 hPa16.1 kmCalmClear
9:52 PM1.7 °C-3.3 °C70 %1022.4 hPa16.1 kmCalmClear
10:52 PM0 °C-3.3 °C79 %1022.7 hPa16.1 kmCalmClear
11:52 PM-1.1 °C-3.9 °C82 %1022.7 hPa16.1 kmCalmClear
Hourly data recorded from KORE, located 0 kilometers away from Greenfield, Massachusetts







STORIES FROM OUR PARTNERS